Pittsfield, IL

1:18 AM CST on February 23, 2017 (GMT -0600)
Pittsfield Penstone Municipal

Weather History for KPPQ - December, 2010

Change the Weather History Date:

Wednesday, December 29, 2010

  Actual Average (KUIN) Record (KUIN)
Temperature  
Mean Temperature 32 °F -  
Max Temperature 39 °F 33 °F 66 °F (1984)
Min Temperature 26 °F 19 °F -12 °F (1917)
Degree Days  
Heating Degree Days 32    
Moisture  
Dew Point 32 °F    
Average Humidity 97    
Maximum Humidity 100    
Minimum Humidity 86    
Precipitation  
Precipitation 0.01 in - - ()
Sea Level Pressure  
Sea Level Pressure 29.88 in    
Wind  
Wind Speed 6 mph (SE)    
Max Wind Speed 15 mph    
Max Gust Speed -    
Visibility 4 miles    
Events Rain    
Averages and records for this station are not official NWS values.
T = Trace of Precipitation, MM = Missing Value Source: NWS Daily Summary

Daily Weather History Graph

Daily Weather History Graph

Search for Another Location

Airport or City:

Trip Planner

Search our weather history database for the weather conditions in past years. The results will help you decide how hot, cold, wet, or windy it might be!

Date:

Astronomy

Dec. 29, 2010 Rise Set
Actual Time 7:23 AM CST 4:47 PM CST
Civil Twilight 6:53 AM CST 5:17 PM CST
Nautical Twilight 6:19 AM CST 5:51 PM CST
Astronomical Twilight 5:46 AM CST 6:24 PM CST
Moon 1:33 AM CST (12/29) 12:16 PM CST (12/29)
Length of Visible Light 10h 24m
Length of Day
9h 23m
Waning Crescent, 33% of the Moon is Illuminated
Dec 29
Waning Crescent
Jan 4
New
Jan 12
First Quarter
Jan 19
Full
Jan 26
Last Quarter

Hourly Weather History & Observations

Time (CST) Temp. Windchill Dew Point Humidity Pressure Visibility Wind Dir Wind Speed Gust Speed Precip Events Conditions
12:08 AM 26.6 °F 20.0 °F 24.8 °F 93% 30.04 in 5.0 mi SSE 5.8 mph - N/A   Clear
12:26 AM 28.4 °F 22.2 °F 26.6 °F 93% 30.03 in 5.0 mi SSE 5.8 mph - N/A   Clear
12:46 AM 30.2 °F 26.7 °F 28.4 °F 93% 30.03 in 7.0 mi SSE 3.5 mph - N/A   Clear
1:08 AM 30.2 °F - 28.4 °F 93% 30.02 in 7.0 mi Calm Calm - N/A   Clear
1:26 AM 28.4 °F 23.3 °F 26.6 °F 93% 30.02 in 7.0 mi SE 4.6 mph - N/A   Clear
1:46 AM 26.6 °F 21.2 °F 26.6 °F 100% 30.01 in 7.0 mi SSE 4.6 mph - N/A   Clear
2:06 AM 26.6 °F 20.0 °F 26.6 °F 100% 30.01 in 5.0 mi SSE 5.8 mph - N/A   Clear
2:26 AM 28.4 °F 22.2 °F 26.6 °F 93% 30.00 in 7.0 mi SSE 5.8 mph - N/A   Clear
2:46 AM 30.2 °F 25.4 °F 26.6 °F 86% 30.00 in 7.0 mi SSE 4.6 mph - N/A   Clear
3:06 AM 28.4 °F 22.2 °F 26.6 °F 93% 29.99 in 7.0 mi SE 5.8 mph - N/A   Clear
3:26 AM 30.2 °F 25.4 °F 26.6 °F 86% 29.97 in 7.0 mi SE 4.6 mph - N/A   Clear
3:46 AM 30.2 °F 25.4 °F 26.6 °F 86% 29.96 in 7.0 mi ESE 4.6 mph - N/A   Clear
4:06 AM 30.2 °F 25.4 °F 28.4 °F 93% 29.96 in 7.0 mi ESE 4.6 mph - N/A   Clear
4:26 AM 28.4 °F 24.6 °F 26.6 °F 93% 29.97 in 5.0 mi ESE 3.5 mph - N/A   Clear
4:46 AM 28.4 °F 23.3 °F 28.4 °F 100% 29.96 in 5.0 mi SE 4.6 mph - N/A   Clear
5:06 AM 28.4 °F 22.2 °F 26.6 °F 93% 29.96 in 5.0 mi SE 5.8 mph - N/A   Clear
5:26 AM 28.4 °F 23.3 °F 26.6 °F 93% 29.95 in 4.0 mi SE 4.6 mph - N/A   Clear
5:46 AM 28.4 °F 23.3 °F 28.4 °F 100% 29.94 in 5.0 mi SE 4.6 mph - N/A   Clear
6:08 AM 26.6 °F 19.1 °F 26.6 °F 100% 29.95 in 5.0 mi SE 6.9 mph - N/A   Clear
6:26 AM 26.6 °F 20.0 °F 26.6 °F 100% 29.94 in 5.0 mi SE 5.8 mph - N/A   Clear
6:46 AM 26.6 °F 20.0 °F 24.8 °F 93% 29.93 in 5.0 mi SE 5.8 mph - N/A   Clear
7:06 AM 28.4 °F 20.4 °F 26.6 °F 93% 29.92 in 7.0 mi SE 8.1 mph - N/A   Clear
7:26 AM 28.4 °F 20.4 °F 26.6 °F 93% 29.92 in 5.0 mi SE 8.1 mph - N/A   Clear
7:46 AM 28.4 °F 20.4 °F 26.6 °F 93% 29.92 in 5.0 mi SSE 8.1 mph - N/A   Clear
8:06 AM 28.4 °F 23.3 °F 28.4 °F 100% 29.91 in 5.0 mi SSE 4.6 mph - N/A   Mostly Cloudy
8:26 AM 30.2 °F 25.4 °F 30.2 °F 100% 29.91 in 5.0 mi SSE 4.6 mph - N/A   Overcast
8:46 AM 32.0 °F 25.6 °F 30.2 °F 93% 29.91 in 5.0 mi SSE 6.9 mph - N/A   Mostly Cloudy
9:06 AM 32.0 °F 24.2 °F 30.2 °F 93% 29.91 in 5.0 mi SSE 9.2 mph - N/A   Overcast
9:26 AM 33.8 °F 25.8 °F 32.0 °F 93% 29.90 in 4.0 mi SE 10.4 mph - N/A   Overcast
9:46 AM 33.8 °F 25.8 °F 32.0 °F 93% 29.88 in 1.5 mi SE 10.4 mph - N/A   Overcast
10:06 AM 33.8 °F 25.3 °F 33.8 °F 100% 29.90 in 2.5 mi SSE 11.5 mph - N/A   Overcast
10:26 AM 33.8 °F 26.4 °F 33.8 °F 100% 29.89 in 3.0 mi SE 9.2 mph - N/A   Overcast
10:46 AM 35.6 °F 29.9 °F 33.8 °F 93% 29.88 in 3.0 mi SE 6.9 mph - N/A   Overcast
11:06 AM 35.6 °F 30.7 °F 35.6 °F 100% 29.87 in 2.0 mi SE 5.8 mph - N/A   Overcast
11:26 AM 35.6 °F 29.9 °F 35.6 °F 100% 29.86 in 1.2 mi SE 6.9 mph - N/A   Overcast
11:46 AM 35.6 °F 30.7 °F 35.6 °F 100% 29.85 in 1.0 mi SE 5.8 mph - N/A   Overcast
12:06 PM 35.6 °F 29.2 °F 35.6 °F 100% 29.83 in 1.2 mi SE 8.1 mph - N/A   Overcast
12:26 PM 35.6 °F 29.2 °F 35.6 °F 100% 29.81 in 1.0 mi SE 8.1 mph - N/A   Overcast
12:46 PM 37.4 °F 30.8 °F 35.6 °F 93% 29.80 in 1.2 mi SE 9.2 mph - N/A Rain Light Rain
1:06 PM 37.4 °F 30.8 °F 37.4 °F 100% 29.79 in 1.2 mi SE 9.2 mph - N/A Rain Light Rain
1:26 PM 37.4 °F 31.4 °F 37.4 °F 100% 29.78 in 1.2 mi SE 8.1 mph - N/A Rain Light Rain
1:46 PM 37.4 °F 30.8 °F 37.4 °F 100% 29.77 in 2.0 mi SE 9.2 mph - N/A   Light Drizzle
2:06 PM 37.4 °F 30.3 °F 37.4 °F 100% 29.75 in 1.8 mi SE 10.4 mph - 0.01 in Rain Light Rain
2:26 PM 37.4 °F 30.8 °F 37.4 °F 100% 29.75 in 2.0 mi SE 9.2 mph - 0.01 in   Overcast
2:46 PM 37.4 °F 31.4 °F 37.4 °F 100% 29.75 in 1.8 mi SE 8.1 mph - 0.01 in   Overcast
3:06 PM 37.4 °F 30.8 °F 37.4 °F 100% 29.74 in 1.0 mi SE 9.2 mph - N/A   Overcast
3:28 PM 37.4 °F 30.8 °F 37.4 °F 100% 29.73 in 0.8 mi SE 9.2 mph - N/A   Overcast
3:46 PM 37.4 °F 30.8 °F 37.4 °F 100% 29.73 in 0.8 mi SE 9.2 mph - N/A Rain Rain
4:06 PM 37.4 °F 30.8 °F 37.4 °F 100% 29.73 in 1.5 mi SE 9.2 mph - N/A   Drizzle
4:26 PM 37.4 °F 30.3 °F 37.4 °F 100% 29.73 in 1.5 mi SE 10.4 mph - N/A Rain Light Rain
4:46 PM 37.4 °F 29.8 °F 37.4 °F 100% 29.73 in 1.2 mi SE 11.5 mph - N/A   Light Drizzle
5:06 PM 37.4 °F 29.8 °F 37.4 °F 100% 29.71 in 2.5 mi SE 11.5 mph - N/A Rain Light Rain
5:26 PM 37.4 °F 29.8 °F 37.4 °F 100% 29.71 in 2.5 mi SE 11.5 mph - N/A   Overcast
5:46 PM 37.4 °F 29.3 °F 37.4 °F 100% 29.71 in 3.0 mi SE 12.7 mph - N/A   Overcast
6:06 PM 39.2 °F 31.2 °F 39.2 °F 100% 29.70 in 2.5 mi SE 13.8 mph - N/A   Overcast
6:26 PM 39.2 °F 30.8 °F 39.2 °F 100% 29.69 in 1.0 mi SE 15.0 mph - N/A   Overcast
6:46 PM 39.2 °F 30.8 °F 39.2 °F 100% 29.69 in 0.5 mi SE 15.0 mph - N/A Fog Fog
7:07 PM 39.2 °F 31.6 °F 39.2 °F 100% 29.69 in 0.5 mi SE 12.7 mph - N/A Fog Fog
7:26 PM 39.2 °F 32.0 °F 39.2 °F 100% 29.70 in 0.5 mi SSE 11.5 mph - N/A Rain Light Rain
7:46 PM 39.2 °F 32.5 °F 39.2 °F 100% 29.70 in 0.8 mi SSE 10.4 mph - N/A   Overcast
8:06 PM 39.2 °F 32.5 °F 39.2 °F 100% 29.70 in 0.8 mi SSE 10.4 mph - N/A Rain Light Rain
8:26 PM 39.2 °F 32.5 °F 39.2 °F 100% 29.70 in 1.0 mi SE 10.4 mph - N/A Rain Light Rain
8:46 PM 39.2 °F 32.5 °F 39.2 °F 100% 29.69 in 0.8 mi SE 10.4 mph - 0.01 in   Overcast
9:06 PM 39.2 °F 31.6 °F 39.2 °F 100% 29.68 in 0.5 mi SE 12.7 mph - N/A Fog Fog
9:26 PM 39.2 °F 32.5 °F 39.2 °F 100% 29.68 in 0.5 mi SSE 10.4 mph - N/A Fog Fog
9:46 PM 39.2 °F 32.5 °F 39.2 °F 100% 29.68 in 0.5 mi SE 10.4 mph - N/A Fog Fog
10:06 PM 39.2 °F 32.5 °F 39.2 °F 100% 29.68 in 0.2 mi SE 10.4 mph - N/A Fog Fog
10:26 PM 39.2 °F 31.6 °F 39.2 °F 100% 29.68 in 0.2 mi SSE 12.7 mph - N/A Rain Light Rain
10:46 PM 41.0 °F 33.9 °F 41.0 °F 100% 29.68 in 0.5 mi SSE 12.7 mph - N/A Rain Light Rain
11:06 PM 41.0 °F 34.3 °F 41.0 °F 100% 29.69 in 0.5 mi SSE 11.5 mph - N/A Rain Light Rain
11:26 PM 41.0 °F 34.3 °F 41.0 °F 100% 29.69 in 0.5 mi SE 11.5 mph - N/A Rain Light Rain
11:46 PM 41.0 °F 34.7 °F 41.0 °F 100% 29.69 in 0.5 mi SE 10.4 mph - N/A Rain Light Rain